Regional Weather Roundup
Issued by NWS Mt. Holly, NJ

Home | Current Version | Previous Version | Text Only | Print | Product List | Glossary On
Versions: 1 2 3 4 5 6 7 8 9 10 11 12 13 14 15 16 17 18 19 20 21 22 23 24 25 26 27 28
000
ASUS41 KPHI 241012
RWRPHI

REGIONAL WEATHER ROUNDUP
NATIONAL WEATHER SERVICE MOUNT HOLLY NJ
600 AM EDT SUN JUL 24 2016

NOTE:  "FAIR" INDICATES FEW OR NO CLOUDS BELOW 12,000 FEET WITH NO
SIGNIFICANT WEATHER AND/OR OBSTRUCTIONS TO VISIBILITY.

 * = STATION DOES NOT REPORT PRECIPITATION (E.G. RAIN, SNOW, ETC.)
        OR FOG.

NJZ015>026-241100-
SOUTHERN NEW JERSEY

CITY           SKY/WX    TMP DP  RH WIND       PRES   REMARKS
POMONA         CLEAR     71  67  87 NW3       29.95R
WILDWOOD*      CLEAR     71  70  96 CALM      29.96R
MILLVILLE      CLEAR     67  65  93 W3        29.96R FOG
WRIGHTSTOWN    CLEAR     66  65  95 CALM      29.94R
MOUNT HOLLY    PTCLDY    66  65  96 CALM      29.96R FOG
TRENTON        PTCLDY    70  61  73 CALM      29.96R

$$
NJZ001>014-241100-
NORTHERN NEW JERSEY

CITY           SKY/WX    TMP DP  RH WIND       PRES   REMARKS
SUSSEX         CLEAR     59  59 100 CALM      30.00R
ANDOVER*         N/A     61  59  93 CALM      30.00R
MORRISTOWN     CLEAR     61  57  88 CALM      29.98R
NEWARK         CLEAR     74  60  61 N6        29.96R
TETERBORO      CLEAR     74  60  61 CALM      29.95R
CALDWELL       CLEAR     67  61  81 CALM      29.98R
SOMERVILLE     PTCLDY    62  60  93 CALM      29.95R
ALLAIRE*       CLEAR     69  64  84 NE3       29.97R
TOMS RIVER*    CLEAR     63  61  94 CALM      29.96R

$$
PAZ043-044-047-054-055-060>062-066>071-241100-
EASTERN PENNSYLVANIA

CITY           SKY/WX    TMP DP  RH WIND       PRES   REMARKS
PHILADELPHIA   MOCLDY    75  64  68 NW3       29.97R
NORTH PHILA    PTCLDY    70  63  78 CALM      29.98R
BLUE BELL*     CLEAR     63  63 100 CALM      29.97R
DOYLESTOWN     PTCLDY    66  61  84 CALM      29.97R
QUAKERTOWN*    PTCLDY    63  61  94 CALM      30.00R
PERKASIE*      FAIR      63  63 100 CALM      30.00R
POTTSTOWN      CLEAR     67  65  93 CALM      30.00R
LANCASTER      CLEAR     65  65 100 CALM      29.99R FOG
COATESVILLE    CLEAR     70  61  73 CALM      30.01R
READING        PTCLDY    68  64  87 CALM      29.98R
ALLENTOWN      PTCLDY    67  60  78 CALM      29.99R
MOUNT POCONO   CLOUDY    64  32  30 NW7       30.05R
HAZLETON       PTCLDY    59  55  88 CALM      30.08R
LEHIGHTON      FAIR      59  59 100 CALM      30.01R
WILKES BARRE   PTCLDY    65  57  75 E3        30.02R

$$
DEZALL-MDZ008-012-015-019-020-241100-
DELAWARE AND EASTERN MARYLAND

CITY           SKY/WX    TMP DP  RH WIND       PRES   REMARKS
WILMINGTON     CLEAR     69  66  90 NW5       29.97R
DOVER          CLEAR     73  73 100 NW5       29.95R
GEORGETOWN     CLEAR     76  73  91 N6        29.95R
EASTON         CLEAR     76  75  98 NE7       29.98S
PATUXENT       CLEAR     79  72  79 W5        29.94R
OCEAN CITY     PTCLDY    77  74  90 CALM      29.94R
WALLOPS ISLAND FAIR      83  77  82 W6        29.94R HX  92
CAMBRIDGE      CLEAR     77  72  83 N3        29.94R
SALISBURY      CLEAR     78  75  90 NE6       29.94R

$$
PAZ001-021-NYZ056-072-MDZ011-DCZ001-241100-
OTHER NEARBY LOCATIONS

CITY           SKY/WX    TMP DP  RH WIND       PRES   REMARKS
HARRISBURG     PTCLDY    69  66  90 CALM      29.98R
STATE COLLEGE  CLEAR     63  57  82 CALM      30.04R
WILLIAMSPORT   CLEAR     64  56  75 NW3       30.01R
BINGHAMTON     PTCLDY    65  57  75 NE3       30.05R
NEW YORK CITY  CLEAR     76  59  55 NE5       29.99R
BALTIMORE      PTCLDY    72  67  84 CALM      29.97R
WASHINGTON DC  FAIR      82  66  58 N9        29.97R

$$




USA.gov is the U.S. government's official web portal to all federal, state and local government web resources and services.